| time (UTC) | temp F | wind direction | speed knots | gust knots | rain 1hr in | rain 24hr in | rain mn in | humidity % | barometer mb |
| 20260510201529 | 55 | 32 | 0.9 | 4.3 | 0.00 | 0.00 | 0.00 | 62 | 1014.9 |
| 20260510200030 | 55 | 0 | 0.9 | 6.1 | 0.00 | 0.00 | 0.00 | 61 | 1015.0 |
| 20260510194530 | 56 | 102 | 0.9 | 4.3 | 0.00 | 0.00 | 0.00 | 59 | 1014.9 |
| 20260510193032 | 56 | 89 | 2.6 | 6.1 | 0.00 | 0.00 | 0.00 | 59 | 1014.8 |
| 20260510191531 | 56 | 41 | 2.6 | 7.0 | 0.00 | 0.00 | 0.00 | 59 | 1014.9 |
| 20260510190035 | 57 | 60 | 0.9 | 6.1 | 0.00 | 0.00 | 0.00 | 58 | 1014.9 |
| 20260510184536 | 57 | 56 | 0.0 | 4.3 | 0.00 | 0.00 | 0.00 | 59 | 1014.9 |
| 20260510183032 | 57 | 65 | 0.9 | 7.8 | 0.00 | 0.00 | 0.00 | 58 | 1014.9 |
| 20260510181530 | 58 | 96 | 3.5 | 7.0 | 0.00 | 0.00 | 0.00 | 57 | 1014.9 |
| 20260510180030 | 58 | 82 | 1.7 | 6.1 | 0.00 | 0.00 | 0.00 | 58 | 1014.8 |
| 20260510174531 | 58 | 81 | 3.5 | 8.7 | 0.00 | 0.00 | 0.00 | 58 | 1015.0 |
| 20260510173032 | 58 | 60 | 1.7 | 7.8 | 0.00 | 0.00 | 0.00 | 60 | 1015.0 |
| 20260510171533 | 58 | 94 | 4.3 | 9.6 | 0.00 | 0.00 | 0.00 | 58 | 1015.1 |
| 20260510170033 | 58 | 105 | 1.7 | 7.0 | 0.00 | 0.00 | 0.00 | 59 | 1015.3 |
| 20260510164531 | 58 | 115 | 2.6 | 7.0 | 0.00 | 0.00 | 0.00 | 60 | 1015.3 |
| 20260510163032 | 58 | 127 | 1.7 | 7.8 | 0.00 | 0.00 | 0.00 | 62 | 1015.4 |
| 20260510161530 | 58 | 92 | 1.7 | 7.0 | 0.00 | 0.00 | 0.00 | 64 | 1015.5 |
| 20260510160032 | 58 | 89 | 1.7 | 7.0 | 0.00 | 0.00 | 0.00 | 65 | 1015.7 |
| 20260510154534 | 58 | 95 | 2.6 | 8.7 | 0.00 | 0.00 | 0.00 | 63 | 1015.9 |
| 20260510153031 | 57 | 78 | 2.6 | 7.0 | 0.00 | 0.00 | 0.00 | 66 | 1015.9 |
| 20260510151534 | 57 | 167 | 2.6 | 8.7 | 0.00 | 0.00 | 0.00 | 67 | 1016.0 |
| 20260510150030 | 58 | 96 | 1.7 | 6.1 | 0.00 | 0.00 | 0.00 | 66 | 1016.1 |
| 20260510144532 | 58 | 86 | 1.7 | 4.3 | 0.00 | 0.00 | 0.00 | 66 | 1016.3 |
| 20260510143036 | 58 | 79 | 0.9 | 3.5 | 0.00 | 0.00 | 0.00 | 66 | 1016.4 |
| 20260510141533 | 58 | 96 | 0.9 | 3.5 | 0.00 | 0.00 | 0.00 | 66 | 1016.6 |
| 20260510140031 | 58 | 13 | 1.7 | 4.3 | 0.00 | 0.00 | 0.00 | 66 | 1016.7 |
| 20260510134531 | 58 | 34 | 2.6 | 6.1 | 0.00 | 0.00 | 0.00 | 66 | 1016.7 |
| 20260510133031 | 57 | 49 | 2.6 | 7.0 | 0.00 | 0.00 | 0.00 | 68 | 1017.1 |
| 20260510131533 | 56 | 49 | 2.6 | 8.7 | 0.00 | 0.00 | 0.00 | 69 | 1017.0 |
| 20260510130030 | 57 | 91 | 2.6 | 8.7 | 0.00 | 0.00 | 0.00 | 69 | 1017.2 |
| 20260510124536 | 57 | 103 | 1.7 | 7.0 | 0.00 | 0.00 | 0.00 | 70 | 1017.5 |
| 20260510123032 | 57 | 75 | 0.9 | 7.0 | 0.00 | 0.00 | 0.00 | 71 | 1017.4 |
| 20260510121530 | 57 | 84 | 1.7 | 7.0 | 0.00 | 0.00 | 0.00 | 69 | 1017.5 |
| 20260510120032 | 57 | 37 | 2.6 | 7.0 | 0.00 | 0.00 | 0.00 | 70 | 1017.7 |
| 20260510114528 | 57 | 104 | 2.6 | 6.1 | 0.00 | 0.00 | 0.00 | 70 | 1017.7 |
| 20260510113037 | 57 | 131 | 1.7 | 5.2 | 0.00 | 0.00 | 0.00 | 69 | 1017.9 |
| 20260510111536 | 57 | 127 | 0.9 | 5.2 | 0.00 | 0.00 | 0.00 | 70 | 1018.0 |
| 20260510110036 | 56 | 91 | 1.7 | 5.2 | 0.00 | 0.00 | 0.00 | 72 | 1018.1 |
| 20260510104532 | 56 | 72 | 2.6 | 7.0 | 0.00 | 0.00 | 0.00 | 72 | 1018.2 |
| 20260510103029 | 55 | 82 | 3.5 | 7.8 | 0.00 | 0.00 | 0.00 | 74 | 1018.2 |
| 20260510101533 | 55 | 105 | 2.6 | 7.8 | 0.00 | 0.00 | 0.00 | 75 | 1018.2 |
| 20260510100032 | 54 | 103 | 2.6 | 7.8 | 0.00 | 0.00 | 0.00 | 75 | 1018.3 |
| 20260510094529 | 54 | 86 | 1.7 | 7.0 | 0.00 | 0.00 | 0.00 | 76 | 1018.4 |
| 20260510093055 | 54 | 45 | 1.7 | 7.0 | 0.00 | 0.00 | 0.00 | 77 | 1018.5 |
| 20260510091530 | 54 | 81 | 2.6 | 7.0 | 0.00 | 0.00 | 0.00 | 76 | 1018.6 |
| 20260510090043 | 54 | 95 | 2.6 | 7.8 | 0.00 | 0.00 | 0.00 | 76 | 1018.6 |
| 20260510084532 | 55 | 86 | 1.7 | 7.8 | 0.00 | 0.00 | 0.00 | 76 | 1018.6 |
| 20260510083032 | 54 | 79 | 2.6 | 7.8 | 0.00 | 0.00 | 0.00 | 77 | 1018.7 |
| 20260510081532 | 53 | 65 | 3.5 | 8.7 | 0.00 | 0.00 | 0.00 | 79 | 1018.8 |
| 20260510080030 | 52 | 32 | 2.6 | 7.8 | 0.00 | 0.00 | 0.00 | 81 | 1018.6 |
| 20260510074533 | 52 | 66 | 2.6 | 8.7 | 0.00 | 0.00 | 0.00 | 81 | 1018.6 |
| 20260510073032 | 51 | 119 | 3.5 | 9.6 | 0.00 | 0.00 | 0.00 | 81 | 1018.5 |
| 20260510071533 | 51 | 44 | 1.7 | 8.7 | 0.00 | 0.00 | 0.00 | 81 | 1018.3 |
| 20260510070030 | 51 | 91 | 1.7 | 8.7 | 0.00 | 0.00 | 0.00 | 81 | 1018.0 |
| 20260510064533 | 51 | 161 | 2.6 | 7.0 | 0.00 | 0.00 | 0.00 | 81 | 1018.0 |
| 20260510063028 | 51 | 3 | 0.9 | 8.7 | 0.00 | 0.00 | 0.00 | 81 | 1018.0 |
| 20260510061530 | 51 | 165 | 2.6 | 13.0 | 0.00 | 0.00 | 0.00 | 80 | 1017.9 |
| 20260510060032 | 51 | 41 | 4.3 | 9.6 | 0.00 | 0.00 | 0.00 | 80 | 1017.8 |
| 20260510054531 | 52 | 93 | 1.7 | 8.7 | 0.00 | 0.00 | 0.00 | 79 | 1017.8 |
| 20260510053029 | 52 | 155 | 0.9 | 9.6 | 0.00 | 0.00 | 0.00 | 79 | 1017.7 |
| 20260510051528 | 52 | 6 | 1.7 | 11.3 | 0.00 | 0.00 | 0.00 | 79 | 1017.8 |
| 20260510050033 | 52 | 25 | 1.7 | 7.0 | 0.00 | 0.00 | 0.00 | 78 | 1017.7 |
| 20260510044540 | 52 | 86 | 2.6 | 11.3 | 0.00 | 0.00 | 0.00 | 78 | 1017.9 |
| 20260510043032 | 52 | 127 | 2.6 | 9.6 | 0.00 | 0.00 | 0.00 | 78 | 1017.8 |
| 20260510041529 | 52 | 131 | 2.6 | 11.3 | 0.00 | 0.00 | 0.00 | 78 | 1017.8 |
| 20260510040028 | 53 | 73 | 1.7 | 6.1 | 0.00 | 0.00 | 0.00 | 78 | 1017.8 |
| 20260510034532 | 53 | 88 | 1.7 | 5.2 | 0.00 | 0.00 | 0.00 | 78 | 1017.9 |
| 20260510033030 | 53 | 131 | 1.7 | 6.1 | 0.00 | 0.00 | 0.00 | 77 | 1017.9 |
| 20260510031532 | 53 | 91 | 1.7 | 9.6 | 0.00 | 0.00 | 0.00 | 77 | 1018.0 |
| 20260510030037 | 54 | 104 | 3.5 | 9.6 | 0.00 | 0.00 | 0.00 | 76 | 1018.0 |
| 20260510024528 | 54 | 101 | 4.3 | 7.8 | 0.00 | 0.00 | 0.00 | 75 | 1018.1 |
| 20260510023032 | 54 | 86 | 0.9 | 5.2 | 0.00 | 0.00 | 0.00 | 76 | 1018.1 |
| 20260510021533 | 54 | 83 | 2.6 | 5.2 | 0.00 | 0.00 | 0.00 | 77 | 1017.9 |
| 20260510020032 | 55 | 55 | 2.6 | 7.8 | 0.00 | 0.00 | 0.00 | 77 | 1017.8 |
| 20260510014529 | 55 | 82 | 1.7 | 7.8 | 0.00 | 0.00 | 0.00 | 78 | 1017.9 |
| 20260510013030 | 55 | 79 | 2.6 | 10.4 | 0.00 | 0.00 | 0.00 | 78 | 1017.9 |
| 20260510011530 | 55 | 89 | 3.5 | 7.8 | 0.00 | 0.00 | 0.00 | 77 | 1017.9 |
| 20260510010029 | 55 | 82 | 1.7 | 7.0 | 0.00 | 0.00 | 0.00 | 77 | 1017.9 |
| 20260510004532 | 56 | 136 | 0.9 | 7.8 | 0.00 | 0.00 | 0.00 | 78 | 1017.9 |
| 20260510003030 | 56 | 120 | 2.6 | 6.1 | 0.00 | 0.00 | 0.00 | 78 | 1017.8 |
| 20260510001532 | 56 | 81 | 1.7 | 7.0 | 0.00 | 0.00 | 0.00 | 79 | 1018.0 |
| 20260510000033 | 56 | 59 | 1.7 | 5.2 | 0.00 | 0.00 | 0.00 | 79 | 1018.0 |
| 20260509234532 | 56 | 50 | 2.6 | 8.7 | 0.00 | 0.00 | 0.00 | 79 | 1017.8 |
| 20260509233030 | 57 | 105 | 2.6 | 7.8 | 0.00 | 0.00 | 0.00 | 79 | 1017.8 |
| 20260509231535 | 57 | 91 | 3.5 | 10.4 | 0.00 | 0.00 | 0.00 | 79 | 1017.7 |
| 20260509230032 | 57 | 6 | 5.2 | 10.4 | 0.00 | 0.00 | 0.00 | 79 | 1017.7 |
| 20260509224538 | 57 | 99 | 3.5 | 7.8 | 0.00 | 0.00 | 0.00 | 79 | 1017.6 |
| 20260509223034 | 57 | 96 | 3.5 | 13.0 | 0.00 | 0.00 | 0.00 | 80 | 1017.6 |
| 20260509221531 | 57 | 329 | 2.6 | 8.7 | 0.00 | 0.00 | 0.00 | 80 | 1017.7 |
| 20260509220035 | 57 | 125 | 1.7 | 7.8 | 0.00 | 0.00 | 0.00 | 80 | 1017.6 |
| 20260509214532 | 57 | 79 | 1.7 | 8.7 | 0.00 | 0.00 | 0.00 | 80 | 1017.7 |
| 20260509213032 | 57 | 65 | 3.5 | 11.3 | 0.00 | 0.00 | 0.00 | 79 | 1017.7 |
| 20260509211537 | 58 | 141 | 1.7 | 8.7 | 0.00 | 0.00 | 0.00 | 79 | 1017.5 |
| 20260509210031 | 58 | 356 | 1.7 | 11.3 | 0.00 | 0.00 | 0.00 | 79 | 1017.5 |
| 20260509204530 | 58 | 11 | 1.7 | 7.8 | 0.00 | 0.00 | 0.00 | 79 | 1017.6 |
| 20260509203031 | 58 | 165 | 3.5 | 10.4 | 0.00 | 0.00 | 0.00 | 78 | 1017.6 |